When you browse on this site, cookies collect data to enhance your experience and personalize the content and advertising you see.
Visit our Privacy Policy to learn more. By continuing to use the site, you agree to this use of cookies and data.
  • In Romania
  • List of Countries
  • For 7 days
  • Water Temperature
  • Satellite Maps
  • Weather Map
  • Weather Widgets
  • user-avatar
    Login

    Hourly Weather San Juan

    Today, 17 January, Thursday

    Time Temperature Precipitation Wind Pressure Humidity
    00:00 +22°C° 0 mm 12 mps 707 mmHg 57%
    01:00 +22°C° 0 mm 12 mps 707 mmHg 58%
    02:00 +21°C° 0 mm 12 mps 708 mmHg 59%
    03:00 +19°C° 0 mm 11 mps 708 mmHg 59%
    04:00 +18°C° 0 mm 11 mps 708 mmHg 60%
    05:00 +18°C° 0 mm 11 mps 709 mmHg 60%
    06:00 +18°C° 0 mm 10 mps 709 mmHg 59%
    07:00 +18°C° 0 mm 10 mps 710 mmHg 59%
    08:00 +18°C° 0 mm 10 mps 710 mmHg 56%
    09:00 +18°C° 0 mm 11 mps 710 mmHg 54%
    10:00 +19°C° 0 mm 11 mps 711 mmHg 52%
    11:00 +19°C° 0.1 mm 11 mps 711 mmHg 51%
    12:00 +19°C° 0.1 mm 11 mps 711 mmHg 51%
    13:00 +21°C° 0.1 mm 11 mps 711 mmHg 51%
    14:00 +21°C° 0 mm 11 mps 711 mmHg 49%
    15:00 +21°C° 0 mm 10 mps 711 mmHg 46%
    16:00 +22°C° 0 mm 10 mps 711 mmHg 44%
    17:00 +21°C° 0 mm 8 mps 711 mmHg 46%
    18:00 +20°C° 0 mm 7 mps 711 mmHg 48%
    19:00 +19°C° 0 mm 5 mps 711 mmHg 51%
    20:00 +19°C° 0 mm 4 mps 711 mmHg 54%
    21:00 +18°C° 0 mm 3 mps 712 mmHg 58%
    22:00 +18°C° 0 mm 2 mps 712 mmHg 62%
    23:00 +17°C° 0 mm 2 mps 712 mmHg 64%

    Tomorrow, 18 January, Friday

    Time Temperature Precipitation Wind Pressure Humidity
    00:00 +17°C° 0 mm 2 mps 712 mmHg 67%
    01:00 +16°C° 0 mm 2 mps 711 mmHg 70%
    02:00 +16°C° 0 mm 2 mps 711 mmHg 72%
    03:00 +15°C° 0 mm 2 mps 711 mmHg 74%
    04:00 +15°C° 0 mm 2 mps 710 mmHg 76%
    05:00 +16°C° 0 mm 2 mps 710 mmHg 70%
    06:00 +17°C° 0 mm 2 mps 711 mmHg 64%
    07:00 +18°C° 0 mm 2 mps 711 mmHg 58%
    08:00 +20°C° 0 mm 2 mps 711 mmHg 51%
    09:00 +21°C° 0 mm 2 mps 710 mmHg 44%
    10:00 +24°C° 0 mm 2 mps 710 mmHg 36%
    11:00 +25°C° 0 mm 2 mps 710 mmHg 33%
    12:00 +26°C° 0 mm 2 mps 709 mmHg 29%
    13:00 +28°C° 0 mm 3 mps 708 mmHg 26%
    14:00 +28°C° 0 mm 3 mps 707 mmHg 25%
    15:00 +28°C° 0 mm 3 mps 707 mmHg 24%
    16:00 +29°C° 0 mm 3 mps 706 mmHg 23%
    17:00 +28°C° 0 mm 3 mps 706 mmHg 24%
    18:00 +27°C° 0 mm 3 mps 707 mmHg 26%
    19:00 +26°C° 0 mm 3 mps 707 mmHg 27%
    20:00 +25°C° 0 mm 3 mps 707 mmHg 29%
    21:00 +25°C° 0 mm 2 mps 708 mmHg 31%
    22:00 +24°C° 0 mm 2 mps 708 mmHg 32%
    23:00 +23°C° 0 mm 1 mps 708 mmHg 34%

    Day after tomorrow, 19 January, Saturday

    Time Temperature Precipitation Wind Pressure Humidity
    00:00 +23°C° 0 mm 1 mps 708 mmHg 35%
    01:00 +20°C° 0 mm 0 mps 707 mmHg 36%
    02:00 +22°C° 0 mm 1 mps 707 mmHg 37%
    03:00 +21°C° 0 mm 1 mps 707 mmHg 37%
    04:00 +21°C° 0 mm 1 mps 707 mmHg 37%
    05:00 +22°C° 0 mm 1 mps 707 mmHg 36%
    06:00 +24°C° 0 mm 2 mps 707 mmHg 34%
    07:00 +25°C° 0 mm 2 mps 708 mmHg 33%
    08:00 +27°C° 0 mm 2 mps 708 mmHg 32%
    09:00 +28°C° 0 mm 2 mps 707 mmHg 31%
    10:00 +29°C° 0 mm 2 mps 707 mmHg 29%
    11:00 +31°C° 0 mm 2 mps 707 mmHg 27%
    12:00 +32°C° 0 mm 2 mps 706 mmHg 24%
    13:00 +34°C° 0 mm 2 mps 705 mmHg 22%
    14:00 +35°C° 0 mm 2 mps 705 mmHg 21%
    15:00 +35°C° 0 mm 2 mps 705 mmHg 20%
    16:00 +35°C° 0 mm 2 mps 704 mmHg 19%
    17:00 +34°C° 0 mm 2 mps 705 mmHg 21%
    18:00 +32°C° 0 mm 2 mps 705 mmHg 23%
    19:00 +31°C° 0 mm 2 mps 706 mmHg 25%
    20:00 +30°C° 0 mm 2 mps 706 mmHg 27%
    21:00 +29°C° 0 mm 3 mps 706 mmHg 29%
    22:00 +28°C° 0 mm 3 mps 707 mmHg 30%
    23:00 +28°C° 0 mm 4 mps 706 mmHg 34%

    20 January, Sunday

    Time Temperature Precipitation Wind Pressure Humidity
    00:00 +27°C° 0 mm 4 mps 705 mmHg 37%
    01:00 +26°C° 0 mm 4 mps 705 mmHg 41%
    02:00 +26°C° 0 mm 4 mps 705 mmHg 43%
    03:00 +25°C° 0 mm 4 mps 705 mmHg 46%
    04:00 +25°C° 0 mm 4 mps 704 mmHg 49%
    05:00 +26°C° 0 mm 4 mps 705 mmHg 46%
    06:00 +27°C° 0 mm 4 mps 705 mmHg 43%
    07:00 +28°C° 0 mm 4 mps 705 mmHg 40%
    08:00 +30°C° 0 mm 3 mps 705 mmHg 36%
    09:00 +31°C° 0 mm 3 mps 705 mmHg 32%
    10:00 +33°C° 0 mm 3 mps 704 mmHg 28%
    11:00 +35°C° 0 mm 2 mps 704 mmHg 26%
    12:00 +36°C° 0 mm 2 mps 703 mmHg 23%
    13:00 +37°C° 0 mm 2 mps 702 mmHg 20%
    14:00 +38°C° 0 mm 3 mps 702 mmHg 19%
    15:00 +38°C° 0 mm 3 mps 701 mmHg 18%
    16:00 +38°C° 0 mm 3 mps 701 mmHg 17%
    17:00 +37°C° 0 mm 3 mps 701 mmHg 19%
    18:00 +36°C° 0 mm 3 mps 702 mmHg 22%
    19:00 +35°C° 0 mm 3 mps 702 mmHg 24%
    20:00 +34°C° 0 mm 3 mps 703 mmHg 27%
    21:00 +32°C° 0 mm 2 mps 703 mmHg 29%
    22:00 +31°C° 0 mm 2 mps 704 mmHg 31%
    23:00 +30°C° 0 mm 2 mps 704 mmHg 34%

    21 January, Monday

    Time Temperature Precipitation Wind Pressure Humidity
    00:00 +29°C° 0 mm 2 mps 704 mmHg 37%
    01:00 +28°C° 0 mm 3 mps 703 mmHg 40%
    02:00 +28°C° 0 mm 2 mps 703 mmHg 43%
    03:00 +27°C° 0 mm 2 mps 704 mmHg 45%
    04:00 +27°C° 0 mm 2 mps 704 mmHg 47%
    05:00 +28°C° 0 mm 1 mps 704 mmHg 45%
    06:00 +29°C° 0 mm 1 mps 705 mmHg 42%
    07:00 +31°C° 0 mm 1 mps 706 mmHg 39%
    08:00 +32°C° 0 mm 2 mps 706 mmHg 35%
    09:00 +34°C° 0 mm 3 mps 706 mmHg 32%
    10:00 +36°C° 0 mm 4 mps 706 mmHg 29%
    11:00 +36°C° 0 mm 4 mps 705 mmHg 27%
    12:00 +37°C° 0 mm 4 mps 704 mmHg 26%
    13:00 +38°C° 0 mm 4 mps 703 mmHg 24%
    14:00 +38°C° 0 mm 4 mps 703 mmHg 23%
    15:00 +38°C° 0 mm 3 mps 702 mmHg 22%
    16:00 +39°C° 0 mm 3 mps 702 mmHg 21%
    17:00 +38°C° 0 mm 2 mps 702 mmHg 22%
    18:00 +37°C° 0 mm 2 mps 702 mmHg 23%
    19:00 +35°C° 0 mm 1 mps 703 mmHg 25%
    20:00 +35°C° 0 mm 2 mps 703 mmHg 27%
    21:00 +34°C° 0 mm 3 mps 703 mmHg 30%
    22:00 +33°C° 0 mm 4 mps 704 mmHg 33%
    23:00 +32°C° 0 mm 4 mps 703 mmHg 36%

    22 January, Tuesday

    Time Temperature Precipitation Wind Pressure Humidity
    00:00 +32°C° 0 mm 4 mps 703 mmHg 40%
    01:00 +30°C° 0 mm 4 mps 702 mmHg 43%
    02:00 +30°C° 0 mm 4 mps 702 mmHg 44%
    03:00 +29°C° 0 mm 4 mps 702 mmHg 45%
    04:00 +29°C° 0 mm 4 mps 702 mmHg 46%
    05:00 +30°C° 0 mm 4 mps 702 mmHg 43%
    06:00 +32°C° 0 mm 4 mps 702 mmHg 40%
    07:00 +33°C° 0 mm 4 mps 703 mmHg 37%
    08:00 +35°C° 0 mm 3 mps 702 mmHg 35%
    09:00 +36°C° 0 mm 3 mps 702 mmHg 33%
    10:00 +37°C° 0 mm 3 mps 702 mmHg 31%
    11:00 +39°C° 0 mm 3 mps 701 mmHg 28%
    12:00 +40°C° 0 mm 3 mps 701 mmHg 24%
    13:00 +42°C° 0 mm 4 mps 700 mmHg 21%
    14:00 +42°C° 0 mm 4 mps 700 mmHg 19%
    15:00 +43°C° 0 mm 4 mps 700 mmHg 18%
    16:00 +43°C° 0 mm 4 mps 699 mmHg 16%
    17:00 +42°C° 0 mm 4 mps 700 mmHg 18%
    18:00 +40°C° 0 mm 3 mps 700 mmHg 20%
    19:00 +39°C° 0 mm 2 mps 701 mmHg 22%
    20:00 +38°C° 0 mm 2 mps 701 mmHg 24%
    21:00 +37°C° 0 mm 3 mps 702 mmHg 26%
    22:00 +36°C° 0 mm 3 mps 702 mmHg 29%
    23:00 +35°C° 0 mm 3 mps 702 mmHg 34%
    Show more